Location: Palm Bay
(27.9400°N, 80.7200°W)
Time: 13:14:27
(UTC-04:00)

Daily predictions for brighter satellites

Satellite Brightness Start Highest point End
(mag) Time Altitude Azimuth Time Altitude Azimuth Time Altitude Azimuth
ATLAS CENTAUR R/B 2.8 19:25:06 10° SW 19:28:29 81° NW 19:38:06 10° NE
Cosmos 2056 Rocket 4.1 19:28:38 10° N 19:33:43 39° ENE 19:38:43 10° SE
Meteor 2-5 Rocket 3.7 19:28:45 10° N 19:34:22 85° E 19:39:53 10° S
Cosmos 2346 Rocket 4.4 19:30:51 10° N 19:36:51 63° E 19:42:48 10° SSE
SJ-6B 3.6 19:35:36 10° SE 19:39:04 31° ENE 19:42:38 10° NNE
GPS 2-04 Rocket1 2.3 19:37:45 10° WSW 19:41:11 85° SSE 19:44:46 10° ENE
GPS 2-05 Rocket1 3.9 19:39:15 10° W 19:42:23 40° SSW 19:45:37 10° SE
Cosmos 1371 Rocket 4.0 19:38:11 10° N 19:43:28 69° ENE 19:48:47 10° SSE
IDEFIX/ARIANE 42P 3.7 19:38:31 10° S 19:43:33 50° W 19:48:37 10° NNW
Cosmos 192 4.4 19:42:35 10° SSW 19:47:31 87° ESE 19:52:30 10° NNE
COSMO-SKYMED 1 3.8 19:43:45 10° N 19:47:54 46° WNW 19:52:03 10° SSW
NOAA 12 4.4 19:43:14 10° SE 19:48:09 43° ENE 19:53:05 10° N
Cosmos 1758 4.0 19:46:00 10° SSE 19:49:38 33° E 19:53:19 10° NNE
Aureole 2 Rocket 4.5 19:52:07 10° SW 19:56:14 41° WNW 20:00:22 10° N
ISS -3.2 19:54:32 10° SSW 19:57:41 53° SE 20:00:33 12° NE
Cosmos 1484 Rocket 3.3 19:53:59 10° S 19:57:43 63° W 20:01:33 10° NNW
OAO 3 Rocket 4.3 19:54:19 10° WNW 19:58:41 35° N 20:02:48 12° ENE
SAR-Lupe-1 4.0 19:55:12 10° SSE 19:58:42 62° ENE 20:02:13 10° N
SL-19 R/B 4.3 19:53:27 10° SSE 19:58:59 81° ENE 20:04:47 10° NNW
USA 215 3.6 19:53:05 10° NE 19:59:34 70° NW 20:06:02 10° SW
Cosmos 1624 Rocket 3.9 19:55:37 10° NNW 20:00:50 82° ENE 20:06:00 10° SSE
Yuri Rocket 4.3 19:58:20 10° W 20:02:18 32° SSW 20:06:00 10° SE
FUSE 4.2 19:57:30 10° WSW 20:02:46 59° S 20:06:40 18° E
ALOS 3.6 20:04:00 17° E 20:05:28 20° ENE 20:08:48 10° NNE
ASTRO E2 3.2 20:01:33 10° WNW 20:05:29 50° N 20:08:09 19° ENE
Cosmos 2034 Rocket 4.0 20:00:49 10° S 20:06:57 64° E 20:13:10 10° NNE
ASC 2 Rocket 3.5 20:02:38 10° W 20:06:58 46° S 20:09:36 19° ESE
Cosmos 1766 Rocket 3.9 20:03:43 10° NNE 20:07:49 40° E 20:11:52 10° SSE
Cosmos 1464 Rocket 4.0 20:02:30 10° S 20:08:48 87° W 20:15:02 10° N
ATLAS 5 CENTAUR R/B 3.0 20:06:48 10° SW 20:11:15 44° WNW 20:16:00 10° NNE
Meteosat 1 Rocket2 4.0 20:05:24 10° WSW 20:12:37 54° SSE 20:15:44 23° E
BREEZE-M TANK 3.0 20:06:04 10° NW 20:13:32 56° NNE 20:15:15 25° E
Helios 1B rocket 2.3 20:11:27 10° NNE 20:15:34 84° E 20:19:40 10° S
Meteor 1-29 2.9 20:12:35 10° NNE 20:16:04 66° E 20:19:30 10° S
Atlas Centaur 2 3.1 20:09:03 10° WNW 20:17:41 79° SSW 20:23:26 21° ESE
Cosmos-2242 2.9 20:13:42 10° S 20:18:00 71° E 20:22:22 10° N
Cosmos 1076 Rocket 3.4 20:14:47 10° N 20:19:07 73° E 20:23:27 10° S
SeaSat 1 3.0 20:16:25 10° NE 20:20:51 33° ESE 20:25:16 10° S
H-II Stage 2 3.6 20:23:00 10° WSW 20:24:32 20° S 20:24:46 20° S
SL-16 R/B 4.5 20:22:35 10° WSW 20:27:13 26° WNW 20:31:54 10° N
FREGAT/IRIS 3.3 20:24:36 10° S 20:27:37 56° W 20:30:40 10° NNW
SEDSat Delta rocket 4.2 20:23:35 10° W 20:30:13 65° N 20:34:02 27° ENE
Cosmos 1452 Rocket 3.6 20:25:09 10° N 20:30:18 54° ENE 20:33:23 23° SE
Cosmos 1842 Rocket 3.7 20:29:07 10° SSE 20:33:14 45° E 20:37:21 10° NNE
ATLAS CENTAUR R/B 3.0 20:33:18 10° NW 20:36:49 31° WSW 20:40:07 10° S
METEOR-M 4.2 20:33:04 10° S 20:38:24 79° WSW 20:43:46 10° NNW
Cosmos 1544 3.2 20:34:49 10° S 20:38:31 77° W 20:42:16 10° N
Cosmos 1408 Rocket 3.8 20:37:15 10° NNW 20:41:33 66° W 20:45:48 10° S
Gbstr 26 Del rocket 3.1 20:39:01 10° SW 20:43:12 78° NW 20:45:51 27° NE
SWIFT 4.4 20:40:35 10° SW 20:43:16 16° SSW 20:44:15 15° S
Cosmos 1953 3.7 20:39:52 10° SSW 20:43:38 40° W 20:47:23 10° NNW
FENGYUN 3A 3.6 20:47:46 38° SE 20:49:41 62° ENE 20:55:00 10° N
Resurs 1-3 3.6 20:48:38 22° S 20:51:25 79° WSW 20:55:49 10° NNW
Resurs 01 Rocket 2.2 20:47:56 10° S 20:52:18 56° W 20:56:41 10° NNW
Cosmos 1420 Rocket 4.3 20:47:19 10° N 20:52:00 45° ENE 20:52:00 45° ENE
Spot 2 Rocket 4.3 20:56:02 10° S 21:00:53 49° W 21:05:46 10° NNW
ASTEX 1 3.4 20:56:55 10° N 21:01:50 80° W 21:06:42 10° S
CENTAUR R/B 2.4 20:56:02 10° SSW 21:01:52 81° WNW 21:08:21 10° NNE
Helios 1A 4.0 20:59:52 14° S 21:03:13 44° W 21:07:12 10° NNW
Delta 168 3.9 21:02:06 10° W 21:07:15 71° S 21:08:13 61° SE
Cosmos 1743 Rocket 3.8 21:05:35 10° N 21:09:33 64° NW 21:09:33 64° NW
Cosmos 1943 3.2 21:04:35 10° SSW 21:10:13 81° WNW 21:15:52 10° NNE
Centaur D-1A AC-32 4.0 21:10:28 10° WSW 21:12:23 19° SSW 21:12:23 19° SSW
Cosmos 2369 Rocket 3.8 21:12:03 10° N 21:14:17 21° NNE 21:14:17 21° NNE
Nadezhda 4 Rocket 4.5 21:18:47 10° NNW 21:24:53 57° W 21:29:50 16° SSW
Cosmos 1092 Rocket 4.1 21:25:48 10° N 21:31:57 72° W 21:32:26 68° SW
Cosmos 1634 Rocket 4.5 21:32:56 10° SSW 21:39:03 56° W 21:45:10 10° N
ALOS 4.0 21:42:33 28° W 21:42:39 28° W 21:46:41 10° NW
BREEZE-M DEB (TANK) 4.4 21:42:03 10° NW 21:52:19 41° WSW 21:52:19 41° WSW
Atlas Centaur 2 4.0 21:59:46 10° W 22:06:05 34° SW 22:06:05 34° SW
